Regional Weather Roundup
Issued by NWS

Home | Current Version | Previous Version | Text Only | Print | Product List | Glossary Off
Versions: 1 2 3 4 5 6 7 8 9 10 11 12 13 14 15 16 17 18 19 20 21 22 23 24 25 26 27 28 29 30 31 32 33 34 35 36 37 38 39 40 41 42 43 44 45 46 47 48 49 50

000
ASUS43 KLSX 242259
RWRMO

WEATHER SUMMARY FOR MISSOURI
NATIONAL WEATHER SERVICE SPRINGFIELD MO
600 PM CDT FRI APR 24 2015

NOTE: "FAIR" INDICATES FEW OR NO CLOUDS BELOW 12,000 FEET WITH NO
       SIGNIFICANT WEATHER AND/OR OBSTRUCTIONS TO VISIBILITY.
       CURRENT SKY AND/OR WEATHER CONDITIONS ARE NOT AVAILABLE FOR
       CHILLICOTHE AND FARMINGTON.

MOZ001>031-035>038-043-044-053-054-250000-
...NORTHERN AND WESTERN MISSOURI...

CITY           SKY/WX    TMP DP  RH WIND       PRES   REMARKS
KANSAS CTY INT CLOUDY    62  54  74 SE9       29.64F
KANSAS C DTWN  CLOUDY    65  54  67 S7        29.63F
LEE`S SUMMIT   CLOUDY    65  54  67 S9G17     29.65F
ST JOSEPH      CLOUDY    62  54  74 SE13      29.63F
CHILLICOTHE      N/A     61  53  75 S9        29.70S
KIRKSVILLE     CLOUDY    64  51  62 S6        29.70F

$$
MOZ066>068-077>081-088>096-101>105-250000-
...SOUTHWEST MISSOURI...

CITY           SKY/WX    TMP DP  RH WIND       PRES   REMARKS
SPRINGFIELD    CLOUDY    57  51  80 SE14      29.72F
JOPLIN         CLOUDY    65  56  72 S16       29.66F

$$
MOZ032>034-039>042-045>050-055>058-069>072-250000-
...CENTRAL MISSOURI...

CITY           SKY/WX    TMP DP  RH WIND       PRES   REMARKS
COLUMBIA       CLOUDY    61  49  64 S16       29.72F
JEFFERSON CITY CLOUDY    62  48  60 SE14      29.72F
ROLLA          CLOUDY    57  48  72 SE15G23   29.74F
SEDALIA        CLOUDY    63  52  67 S13       29.70F
OSAGE BEACH    CLOUDY    61  48  63 S14       29.73F

$$
MOZ051-052-059>065-250000-
...EAST CENTRAL MISSOURI...

CITY           SKY/WX    TMP DP  RH WIND       PRES   REMARKS
ST LOUIS INTL  CLOUDY    63  40  42 S17G28    29.82F
SPIRIT OF STL  CLOUDY    60  43  53 SE9G16    29.79F
ST CHARLES     CLOUDY    62  39  42 S16       29.80F

$$
MOZ072>076-082>087-097>100-106>115-250000-
...SOUTH CENTRAL AND SOUTHEAST MISSOURI...

CITY           SKY/WX    TMP DP  RH WIND       PRES   REMARKS
CAPE GIRARDEAU CLOUDY    56  48  74 E5        29.89F
FARMINGTON     CLOUDY    54  45  71 S13G20    29.89S
POPLAR BLUFF   CLOUDY    56  48  74 SE8       29.87F
WEST PLAINS    CLOUDY    53  47  79 SE13G20   29.83F

$$



USA.gov is the U.S. government's official web portal to all federal, state and local government web resources and services.